Tracking 27112 objects as of 26-Mar-2023
HD Live streaming from Space Station
objects crossing your sky now

AUREOLE 1

Track AUREOLE 1 now!
10-day predictions
AUREOLE 1 is classified as:


NORAD ID: 5729
Int'l Code: 1971-119A
Perigee: 393.0 km
Apogee: 1,534.8 km
Inclination: 74.0 °
Period: 104.2 minutes
Semi major axis: 7334 km
RCS: 2.1591 m2 (large)
Launch date: December 27, 1971
Source: France (FR)
Launch site: PLESETSK MISSILE AND SPACE COMPLEX (PKMTR)
Your satellite tracking list
Your tracking list is empty




NASA's NSSDC Master Catalog

Two Line Element Set (TLE):
1  5729U 71119A   23085.50365772  .00011274  00000-0  83609-3 0  9999
2  5729  73.9561 329.7950 0778354  56.2541 311.0286 13.82010931477791
Source of the keplerian elements: AFSPC